Weather History for Montreal Mirabel, QC

Change the Weather History Date:

Friday, March 22, 2013

  Actual Average Record
Temperature  
Mean Temperature 26 °F -  
Max Temperature 28 °F 33 °F 75 °F (2012)
Min Temperature 23 °F 18 °F 1 °F (2002)
Degree Days  
Heating Degree Days 40    
Moisture  
Dew Point 19 °F    
Average Humidity 78    
Maximum Humidity 93    
Minimum Humidity 51    
Precipitation  
Precipitation 0.00 in - - ()
Sea Level Pressure  
Sea Level Pressure 29.69 in    
Wind  
Wind Speed 6 mph ()    
Max Wind Speed 14 mph    
Max Gust Speed 22 mph    
Visibility 11.5 miles    
Events Snow    
Averages and records for this station are not official NWS values.
T = Trace of Precipitation, MM = Missing Value Source: Averaged Metar Reports

Daily Weather History Graph

Daily Weather History Graph

Search for Another Location

Airport:

Trip Planner

Search our weather history database for the weather conditions in past years. The results will help you decide how hot, cold, wet, or windy it might be!

Date:

Astronomy

Mar. 22, 2013 Rise Set
Actual Time 6:54 AM EDT 7:11 PM EDT
Civil Twilight 6:25 AM EDT 7:41 PM EDT
Nautical Twilight 5:50 AM EDT 8:16 PM EDT
Astronomical Twilight 5:14 AM EDT 8:52 PM EDT
Moon 2:24 PM EDT (3/22) 4:06 AM EDT (3/22)
Length of Visible Light 13h 16m
Length of Day
12h 16m
Waxing Gibbous, 77% of the Moon is Illuminated
Mar 22
Waxing Gibbous
Mar 27
Full
Apr 3
Last Quarter
Apr 10
New
Apr 18
First Quarter

Hourly Weather History & Observations

Time (EDT) Temp. Windchill Dew Point Humidity Pressure Visibility Wind Dir Wind Speed Gust Speed Precip Events Conditions
12:00 AM 24.8 °F 19.1 °F 21.2 °F 86% 29.68 in 8.0 mi SW 4.6 mph - N/A Snow Light Snow Showers
1:00 AM 24.8 °F 17.9 °F 21.2 °F 86% 29.67 in 10.0 mi SW 5.8 mph - N/A Snow Light Snow Showers
2:00 AM 24.8 °F 16.9 °F 21.2 °F 86% 29.66 in 15.0 mi SW 6.9 mph - N/A Snow Light Snow Showers
2:50 AM 24.8 °F 16.9 °F 21.2 °F 86% 29.66 in 15.0 mi SW 6.9 mph - N/A   Overcast
3:00 AM 24.8 °F 16.1 °F 21.2 °F 86% 29.66 in 15.0 mi SW 8.1 mph - N/A   Overcast
4:00 AM 24.8 °F 17.9 °F 21.2 °F 86% 29.65 in 15.0 mi SW 5.8 mph - N/A   Overcast
5:00 AM 24.8 °F 17.9 °F 21.2 °F 86% 29.66 in 15.0 mi SW 5.8 mph - N/A   Overcast
5:45 AM 24.8 °F 16.9 °F 21.2 °F 86% 29.66 in 10.0 mi SW 6.9 mph - N/A Snow Light Snow Showers
6:00 AM 23.0 °F 15.8 °F 21.2 °F 93% 29.66 in 10.0 mi SW 5.8 mph - N/A Snow Light Snow Showers
7:00 AM 23.0 °F 18.4 °F 21.2 °F 93% 29.67 in 8.0 mi SW 3.5 mph - N/A Snow Light Snow Showers
7:33 AM 23.0 °F 18.4 °F 21.2 °F 93% 29.68 in 8.0 mi SW 3.5 mph - N/A Snow Light Snow Showers
8:00 AM 23.0 °F 17.0 °F 21.2 °F 93% 29.68 in 8.0 mi WSW 4.6 mph - N/A Snow Light Snow Showers
9:00 AM 24.8 °F 19.1 °F 21.2 °F 86% 29.68 in 3.0 mi WSW 4.6 mph - N/A Snow Light Snow Showers
9:27 AM 24.8 °F 20.5 °F 21.2 °F 86% 29.68 in 4.0 mi SW 3.5 mph - N/A Snow Light Snow Showers
9:53 AM 26.6 °F 20.0 °F 21.2 °F 80% 29.69 in 15.0 mi SSW 5.8 mph - N/A   Mostly Cloudy
10:00 AM 26.6 °F 20.0 °F 21.2 °F 80% 29.69 in 15.0 mi SSW 5.8 mph - N/A   Mostly Cloudy
11:00 AM 26.6 °F 16.2 °F 19.4 °F 74% 29.69 in 25.0 mi SSW 11.5 mph - N/A   Scattered Clouds
12:00 PM 28.4 °F 17.5 °F 17.6 °F 64% 29.69 in 25.0 mi SSW 13.8 mph - N/A   Scattered Clouds
1:00 PM 28.4 °F 20.4 °F 15.8 °F 59% 29.70 in 25.0 mi WSW 8.1 mph 17.3 mph N/A   Partly Cloudy
2:00 PM 28.4 °F 18.0 °F 12.2 °F 51% 29.70 in 45.0 mi WSW 12.7 mph 19.6 mph N/A   Scattered Clouds
3:00 PM 26.6 °F 15.7 °F 14.0 °F 59% 29.69 in 45.0 mi SW 12.7 mph 21.9 mph N/A   Scattered Clouds
4:00 PM 28.4 °F 19.1 °F 15.8 °F 59% 29.70 in 45.0 mi WSW 10.4 mph 18.4 mph N/A   Partly Cloudy
5:00 PM 28.4 °F 18.0 °F 15.8 °F 59% 29.70 in 40.0 mi SW 12.7 mph 19.6 mph N/A   Mostly Cloudy
5:20 PM 28.4 °F 18.0 °F 15.8 °F 59% 29.71 in 45.0 mi WSW 12.7 mph 18.4 mph N/A Snow Light Snow Showers
6:00 PM 26.6 °F 16.8 °F 17.6 °F 69% 29.73 in 10.0 mi WSW 10.4 mph 18.4 mph N/A Snow Light Snow Showers
7:00 PM 26.6 °F 18.2 °F 19.4 °F 74% 29.74 in 15.0 mi WSW 8.1 mph - N/A Snow Light Snow Showers
8:00 PM 26.6 °F 19.1 °F 21.2 °F 80% 29.75 in 20.0 mi WSW 6.9 mph - N/A Snow Light Snow Showers
8:34 PM 26.6 °F 19.1 °F 19.4 °F 74% 29.75 in 25.0 mi WSW 6.9 mph - N/A   Overcast
9:00 PM 26.6 °F 20.0 °F 19.4 °F 74% 29.75 in 25.0 mi WSW 5.8 mph - N/A   Mostly Cloudy
10:00 PM 24.8 °F 17.9 °F 19.4 °F 80% 29.75 in 25.0 mi WSW 5.8 mph - N/A   Scattered Clouds
11:00 PM 24.8 °F - 21.2 °F 86% 29.75 in 25.0 mi NW 2.3 mph - N/A   Scattered Clouds